sat.trackr.live / text

‹ back to catalog

YAOGAN-20 01A

NORAD 40109 · 2014-047A

PAYLOAD ACTIVE UNKNOWN

§ Identity

Operator
Country
PRC
Launch date
2014-08-09
Launch site
JSC
Launch vehicle
Mass (kg)
RCS (m²)
2.81

External: N2YO · Heavens-Above · Gunter

§ Orbital elements

Epoch: 2026-09-20T04:46:55.197408Z

Period
107.03 min
Inclination
63.3768°
Eccentricity
0.0398537
Mean motion
13.45449623 rev/d
Perigee alt
791.5 km
Apogee alt
1,386.6 km
Semi-major
7,467.2 km
B*
1.2204e-4
RAAN
134.1539°
Arg perigee
15.2100°
Mean anomaly
346.0508°
Rev number
59,522

§ Raw data

YAOGAN-20 01A1 40109U 14047A   26263.19924997  .00000026  00000+0  12204-3 0  99982 40109  63.3768 134.1539 0398537  15.2100 346.0508 13.45449623595229

JSON: /api/v1/satellites/40109 · /tle

For live sub-satellite position, see the globe view (requires WebGL).

§ Visibility from observer

Set your observer location to see the next 7 days of passes ≥ 10°. The values pass through the URL so the page stays shareable.

No JS? Fill the form by hand. The geolocation button needs JavaScript.